Home > Weather > Odesa > Past weeks

Flag for Ukraine Weather for the Past 2 Weeks in Odesa, Ukraine

Now
63 °F

Sunny.


Feels Like: 63 °F
Forecast: 50 / 63 °F
Wind: 6 mph from South

Location: Odesa Airport

Current Time: May 1, 2016 at 6:51:24 PM

Latest Report: May 1, 2016 at 6:30 PM


Visibility: 10 mi

Pressure: 30.12 "Hg

Humidity: 68%

Dew Point: 52 °F

Location of OdesaLocation

Historic Weather in Odesa — Graph

°F

Odesa Temperature Yesterday

Maximum temperature yesterday: 72 °F (at 2:00 PM)
Minimum temperature yesterday: 43 °F (at 6:00 AM)
Average temperature yesterday: 58 °F

High & Low Weather Summary for the Past Weeks

 TemperatureHumidityPressure
High81 °F (Apr 18, 2:00 PM)100% (Apr 16, 8:00 PM)30.18 "Hg (Apr 16, 8:00 PM)
Low37 °F (Apr 22, 2:00 AM)30% (Apr 18, 3:00 PM)29.45 "Hg (Apr 25, 4:30 AM)
Average54 °F81%29.90 "Hg
* Reported Apr 16 5:00 PM — May 1 5:30 PM, Odesa, Weather by CustomWeather, © 2016

Note: Actual official high and low records may vary slightly from our data, if they occured in-between our weather recording intervals... More about our weather records

Advertising

Odesa Weather History for the Previous 24 Hours

Scroll right to see more
 ConditionsComfort  
Time TempWeatherWind HumidityBarometerVisibility
5:30 PM
Sun, May 1
64 °FPassing clouds.10 mph68%30.12 "HgN/A
5:00 PM64 °FPassing clouds.8 mph64%30.12 "HgN/A
4:30 PM64 °FScattered clouds.8 mph68%30.12 "HgN/A
4:00 PM66 °FScattered clouds.10 mph60%30.12 "HgN/A
3:30 PM66 °FScattered clouds.10 mph60%30.12 "HgN/A
3:00 PM66 °FScattered clouds.10 mph56%30.12 "HgN/A
2:30 PM66 °FScattered clouds.10 mph60%30.12 "HgN/A
2:00 PM66 °FScattered clouds.13 mph60%30.12 "HgN/A
1:30 PM64 °FScattered clouds.10 mph68%30.15 "HgN/A
1:00 PM64 °FScattered clouds.10 mph64%30.15 "HgN/A
12:30 PM64 °FScattered clouds.8 mph64%30.15 "HgN/A
12:00 PM64 °FScattered clouds.8 mph68%30.15 "HgN/A
11:30 AM64 °FPassing clouds.6 mph68%30.15 "HgN/A
11:00 AM64 °FPassing clouds.6 mph68%30.15 "HgN/A
10:00 AM64 °FSunny.3 mph64%30.12 "Hg10 mi
9:30 AM63 °FSunny.No wind68%30.12 "Hg10 mi
9:00 AM59 °FSunny.3 mph77%30.12 "Hg10 mi
8:30 AM57 °FSunny.No wind77%30.12 "Hg10 mi
7:30 AM54 °FSunny.No wind88%30.09 "Hg10 mi
7:00 AM48 °FSunny.No wind100%30.09 "Hg10 mi
6:30 AM48 °FClear.No wind87%30.09 "Hg10 mi
5:30 AM46 °FClear.6 mph87%30.09 "Hg10 mi
5:00 AM46 °FClear.6 mph93%30.07 "Hg10 mi
4:30 AM46 °FClear.No wind93%30.07 "Hg10 mi
4:00 AM46 °FClear.No wind93%30.09 "Hg10 mi
3:30 AM46 °FClear.No wind93%30.09 "Hg10 mi
3:00 AM48 °FClear.No wind94%30.07 "Hg10 mi
2:30 AM48 °FClear.No wind94%30.07 "Hg10 mi
2:00 AM50 °FClear.No wind82%30.09 "Hg10 mi
1:00 AM50 °FClear.No wind88%30.09 "Hg10 mi
12:30 AM50 °FClear.No wind88%30.09 "Hg10 mi
12:00 AM48 °FClear.No wind87%30.09 "Hg10 mi
11:30 PM
Sat, Apr 30
52 °FClear.3 mph82%30.09 "Hg10 mi
11:00 PM54 °FClear.No wind82%30.07 "Hg10 mi
10:30 PM54 °FClear.No wind82%30.09 "Hg10 mi
10:00 PM55 °FClear.No wind77%30.09 "Hg10 mi
9:30 PM55 °FClear.No wind77%30.09 "Hg10 mi
9:00 PM57 °FSunny.No wind72%30.09 "Hg10 mi
8:30 PM57 °FSunny.No wind77%30.07 "Hg10 mi
8:00 PM59 °FSunny.3 mph68%30.07 "Hg10 mi
7:30 PM63 °FSunny.6 mph59%30.07 "Hg10 mi
7:00 PM66 °FSunny.10 mph52%30.07 "Hg10 mi
6:30 PM68 °FPassing clouds.3 mph49%30.07 "HgN/A
6:00 PM68 °FPartly sunny.No wind46%30.07 "HgN/A
Weather by CustomWeather, © 2016

See weather overviewHow to use our weather pages